Location: Newark
(25.6108°S, 54.5803°W)
Time: 08:26:40
(UTC+00:00)

Courier 1B - Pass Details

Date: 29 October 2020
Orbit: 962 x 1209 km, 28.3° (Epoch: 02 December)

Event Time Altitude Azimuth Distance (km) Brightness Sun altitude
Rises 03:58:02 0° 267° (W) 4,058 - -49.8°
Reaches altitude 10° 04:00:51 10° 265° (W) 3,118 - -49.7°
Maximum altitude 04:08:41 73° 181° (S) 1,262 - -49.2°
Drops below altitude 10° 04:16:34 10° 96° (E) 3,141 - -48.6°
Exits shadow 04:17:32 - 95° (E) 3,460 10.5 -48.5°
Sets 04:19:25 0° 93° (E) 4,090 11.0 -48.4°
